When you browse on this site, cookies collect data to enhance your experience and personalize the content and advertising you see.
Visit our Privacy Policy to learn more. By continuing to use the site, you agree to this use of cookies and data.
  • Em Portugal
  • Lista de países
  • Para 7 dias
  • Temperatura da água
  • Mapas de satélite
  • Mapa do tempo
  • Widgets de tempo
  • user-avatar
    Iniciar Sessão

    Previsão horária em Stajkowo

    Hoje, 18 Dezembro, Terça-feira

    Tempo Temperatura Precipitação Vento Pressão Humidade
    00:00 -3°C° 0 mm 2 m/s 766 mmHg 83%
    01:00 -3°C° 0 mm 2 m/s 766 mmHg 81%
    02:00 -3°C° 0 mm 2 m/s 766 mmHg 82%
    03:00 -3°C° 0 mm 2 m/s 766 mmHg 82%
    04:00 -3°C° 0 mm 2 m/s 766 mmHg 83%
    05:00 -3°C° 0 mm 2 m/s 767 mmHg 84%
    06:00 -3°C° 0 mm 2 m/s 767 mmHg 85%
    07:00 -4°C° 0 mm 3 m/s 767 mmHg 86%
    08:00 -2°C° 0 mm 3 m/s 767 mmHg 86%
    09:00 -2°C° 0 mm 3 m/s 767 mmHg 86%
    10:00 -2°C° 0 mm 3 m/s 767 mmHg 86%
    11:00 -1°C° 0 mm 3 m/s 767 mmHg 86%
    12:00 -1°C° 0 mm 3 m/s 767 mmHg 86%
    13:00 0°C° 0 mm 3 m/s 767 mmHg 89%
    14:00 0°C° 0 mm 3 m/s 767 mmHg 91%
    15:00 -1°C° 0 mm 3 m/s 767 mmHg 93%
    16:00 -1°C° 0 mm 3 m/s 767 mmHg 96%
    17:00 -1°C° 0 mm 3 m/s 767 mmHg 96%
    18:00 0°C° 0 mm 3 m/s 767 mmHg 96%
    19:00 0°C° 0 mm 3 m/s 767 mmHg 96%
    20:00 0°C° 0 mm 3 m/s 767 mmHg 96%
    21:00 0°C° 0 mm 3 m/s 766 mmHg 96%
    22:00 0°C° 0 mm 3 m/s 766 mmHg 96%
    23:00 0°C° 0 mm 3 m/s 766 mmHg 96%

    Amanhã, 19 Dezembro, Quarta-feira

    Tempo Temperatura Precipitação Vento Pressão Humidade
    00:00 -1°C° 0 mm 4 m/s 766 mmHg 96%
    01:00 -1°C° 0 mm 4 m/s 766 mmHg 96%
    02:00 -1°C° 0 mm 4 m/s 766 mmHg 96%
    03:00 -1°C° 0 mm 4 m/s 766 mmHg 95%
    04:00 -1°C° 0 mm 5 m/s 765 mmHg 95%
    05:00 -1°C° 0 mm 5 m/s 765 mmHg 94%
    06:00 -1°C° 0 mm 5 m/s 764 mmHg 92%
    07:00 -2°C° 0 mm 6 m/s 764 mmHg 91%
    08:00 -2°C° 0 mm 6 m/s 764 mmHg 86%
    09:00 -2°C° 0 mm 6 m/s 764 mmHg 82%
    10:00 -2°C° 0 mm 7 m/s 763 mmHg 77%
    11:00 -1°C° 0 mm 7 m/s 763 mmHg 75%
    12:00 -1°C° 0 mm 7 m/s 762 mmHg 74%
    13:00 -1°C° 0 mm 7 m/s 762 mmHg 72%
    14:00 -1°C° 0 mm 7 m/s 762 mmHg 75%
    15:00 -2°C° 0 mm 7 m/s 761 mmHg 77%
    16:00 -2°C° 0 mm 7 m/s 761 mmHg 80%
    17:00 -2°C° 0 mm 6 m/s 761 mmHg 80%
    18:00 -2°C° 0 mm 6 m/s 761 mmHg 80%
    19:00 -2°C° 0 mm 6 m/s 761 mmHg 81%
    20:00 -1°C° 0.1 mm 5 m/s 761 mmHg 81%
    21:00 -1°C° 0.1 mm 5 m/s 760 mmHg 82%
    22:00 -1°C° 0.1 mm 5 m/s 760 mmHg 82%
    23:00 -1°C° 0.2 mm 5 m/s 760 mmHg 84%

    Depois de amanhã, 20 Dezembro, Quinta-feira

    Tempo Temperatura Precipitação Vento Pressão Humidade
    00:00 -1°C° 0.2 mm 5 m/s 760 mmHg 85%
    01:00 -1°C° 0.2 mm 4 m/s 760 mmHg 87%
    02:00 -1°C° 0.3 mm 4 m/s 760 mmHg 88%
    03:00 -1°C° 0.3 mm 4 m/s 760 mmHg 90%
    04:00 -1°C° 0.3 mm 4 m/s 760 mmHg 91%
    05:00 -1°C° 0.3 mm 4 m/s 760 mmHg 92%
    06:00 -1°C° 0.3 mm 4 m/s 760 mmHg 92%
    07:00 -1°C° 0.3 mm 4 m/s 760 mmHg 93%
    08:00 -1°C° 0.2 mm 4 m/s 760 mmHg 93%
    09:00 -1°C° 0.2 mm 4 m/s 760 mmHg 92%
    10:00 -1°C° 0.2 mm 4 m/s 760 mmHg 92%
    11:00 -1°C° 0.3 mm 4 m/s 760 mmHg 93%
    12:00 -1°C° 0.3 mm 4 m/s 759 mmHg 93%
    13:00 -1°C° 0.3 mm 4 m/s 759 mmHg 93%
    14:00 0°C° 0.4 mm 3 m/s 759 mmHg 94%
    15:00 0°C° 0.4 mm 3 m/s 759 mmHg 94%
    16:00 0°C° 0.4 mm 3 m/s 759 mmHg 95%
    17:00 0°C° 0.3 mm 3 m/s 759 mmHg 95%
    18:00 0°C° 0.3 mm 3 m/s 759 mmHg 95%
    19:00 0°C° 0.3 mm 3 m/s 759 mmHg 96%
    20:00 0°C° 0.2 mm 3 m/s 759 mmHg 96%
    21:00 0°C° 0.2 mm 3 m/s 759 mmHg 96%
    22:00 +1°C° 0.2 mm 3 m/s 758 mmHg 97%
    23:00 0°C° 0 mm 3 m/s 758 mmHg 97%

    21 Dezembro, Sexta-feira

    Tempo Temperatura Precipitação Vento Pressão Humidade
    00:00 0°C° 0 mm 3 m/s 758 mmHg 96%
    01:00 0°C° 0 mm 3 m/s 758 mmHg 96%
    02:00 0°C° 0 mm 3 m/s 758 mmHg 96%
    03:00 0°C° 0 mm 3 m/s 758 mmHg 96%
    04:00 0°C° 0 mm 3 m/s 757 mmHg 96%
    05:00 -1°C° 0 mm 4 m/s 757 mmHg 96%
    06:00 -1°C° 0 mm 4 m/s 757 mmHg 96%
    07:00 -1°C° 0 mm 4 m/s 757 mmHg 97%
    08:00 0°C° 0 mm 4 m/s 756 mmHg 97%
    09:00 0°C° 0 mm 4 m/s 756 mmHg 97%
    10:00 0°C° 0 mm 4 m/s 756 mmHg 97%
    11:00 +1°C° 0 mm 4 m/s 756 mmHg 97%
    12:00 +1°C° 0 mm 4 m/s 755 mmHg 97%
    13:00 +1°C° 0 mm 4 m/s 755 mmHg 96%
    14:00 +1°C° 0 mm 4 m/s 754 mmHg 96%
    15:00 +1°C° 0 mm 4 m/s 753 mmHg 96%
    16:00 +1°C° 0 mm 5 m/s 753 mmHg 95%
    17:00 +1°C° 0.2 mm 5 m/s 752 mmHg 95%
    18:00 +1°C° 0.2 mm 6 m/s 751 mmHg 94%
    19:00 +1°C° 0.2 mm 6 m/s 750 mmHg 94%
    20:00 0°C° 0.7 mm 7 m/s 749 mmHg 93%
    21:00 0°C° 0.7 mm 7 m/s 749 mmHg 93%
    22:00 0°C° 0.7 mm 7 m/s 748 mmHg 93%
    23:00 +2°C° 0.8 mm 7 m/s 748 mmHg 93%

    22 Dezembro, Sábado

    Tempo Temperatura Precipitação Vento Pressão Humidade
    00:00 +3°C° 0.8 mm 6 m/s 747 mmHg 92%
    01:00 +3°C° 0.8 mm 6 m/s 747 mmHg 92%
    02:00 +3°C° 0.5 mm 7 m/s 747 mmHg 91%
    03:00 +4°C° 0.5 mm 7 m/s 747 mmHg 89%
    04:00 +4°C° 0.5 mm 8 m/s 748 mmHg 88%
    05:00 +4°C° 0.2 mm 8 m/s 748 mmHg 88%
    06:00 +4°C° 0.2 mm 7 m/s 748 mmHg 88%
    07:00 +4°C° 0.2 mm 7 m/s 748 mmHg 88%
    08:00 +4°C° 0.1 mm 7 m/s 748 mmHg 88%
    09:00 +4°C° 0.1 mm 6 m/s 748 mmHg 89%
    10:00 +4°C° 0.1 mm 6 m/s 748 mmHg 90%
    11:00 +4°C° 0.6 mm 6 m/s 748 mmHg 91%
    12:00 +4°C° 0.6 mm 6 m/s 748 mmHg 92%
    13:00 +5°C° 0.6 mm 5 m/s 747 mmHg 93%
    14:00 +4°C° 1.1 mm 6 m/s 747 mmHg 92%
    15:00 +4°C° 1.1 mm 6 m/s 747 mmHg 92%
    16:00 +5°C° 1.1 mm 6 m/s 747 mmHg 91%
    17:00 +4°C° 0.2 mm 6 m/s 747 mmHg 90%
    18:00 +4°C° 0.2 mm 6 m/s 747 mmHg 88%
    19:00 +4°C° 0.2 mm 7 m/s 747 mmHg 87%
    20:00 +4°C° 0.3 mm 7 m/s 748 mmHg 86%
    21:00 +4°C° 0.3 mm 8 m/s 748 mmHg 85%
    22:00 +3°C° 0.3 mm 9 m/s 748 mmHg 84%
    23:00 +3°C° 0.5 mm 10 m/s 749 mmHg 84%

    23 Dezembro, Domingo

    Tempo Temperatura Precipitação Vento Pressão Humidade
    00:00 +3°C° 0.5 mm 10 m/s 749 mmHg 84%
    01:00 +3°C° 0.5 mm 11 m/s 749 mmHg 84%
    02:00 +3°C° 0.2 mm 10 m/s 750 mmHg 84%
    03:00 +2°C° 0.2 mm 10 m/s 751 mmHg 84%
    04:00 +2°C° 0.2 mm 9 m/s 751 mmHg 85%
    05:00 +2°C° 0.1 mm 8 m/s 752 mmHg 86%
    06:00 +3°C° 0.1 mm 7 m/s 753 mmHg 87%
    07:00 +2°C° 0.1 mm 6 m/s 753 mmHg 88%
    08:00 +2°C° 0.1 mm 5 m/s 754 mmHg 89%
    09:00 +4°C° 0.1 mm 4 m/s 754 mmHg 90%
    10:00 +4°C° 0.1 mm 3 m/s 755 mmHg 91%
    11:00 +4°C° 0.3 mm 3 m/s 755 mmHg 91%
    12:00 +5°C° 0.3 mm 2 m/s 755 mmHg 91%
    13:00 +5°C° 0.3 mm 2 m/s 755 mmHg 92%
    14:00 +5°C° 0.4 mm 2 m/s 755 mmHg 91%
    15:00 +5°C° 0.4 mm 2 m/s 755 mmHg 91%
    16:00 +4°C° 0.4 mm 3 m/s 755 mmHg 91%
    17:00 +4°C° 0.6 mm 3 m/s 756 mmHg 92%
    18:00 +4°C° 0.6 mm 3 m/s 756 mmHg 92%
    19:00 +4°C° 0.6 mm 3 m/s 756 mmHg 93%
    20:00 +3°C° 0.2 mm 3 m/s 757 mmHg 92%
    21:00 +3°C° 0.2 mm 4 m/s 758 mmHg 90%
    22:00 +3°C° 0.2 mm 4 m/s 758 mmHg 89%
    23:00 +3°C° 0.1 mm 3 m/s 759 mmHg 90%
    Mostrar mais